Regional Weather Roundup
Issued by NWS Albany, NY

Home | Current Version | Previous Version | Graphics & Text | Print | Product List | Glossary Off
Versions: 1 2 3 4 5 6 7 8 9 10 11 12 13 14 15 16 17 18 19 20 21 22 23 24 25 26 27

000
ASUS41 KALY 302010
RWRALY

NEW YORK STATE HOURLY WEATHER ROUNDUP
NATIONAL WEATHER SERVICE ALBANY NY
400 PM EDT TUE AUG 30 2016

NOTE: "FAIR" INDICATES FEW OR NO CLOUDS BELOW 12,000 FEET WITH NO
SIGNIFICANT WEATHER AND/OR NO OBSTRUCTIONS TO VISIBILITY.

NYZ032-033-038>043-046>054-057>066-NYZ062>081-082-084-302100-
EAST


CITY           SKY/WX    TMP DP  RH WIND       PRES   REMARKS
ALBANY         PTSUNNY   80  56  43 W9        30.06F
GLENS FALLS    MOSUNNY   80  60  50 S13       30.05F
POUGHKEEPSIE   MOSUNNY   81  57  43 MISG      30.05F
NEWBURGH       MOSUNNY   81  61  50 W9        30.10F
MONTGOMERY     SUNNY     83  62  49 W9        30.07F
WHITE PLAINS   MOSUNNY   79  62  56 SE8       30.07F
ISLIP          MOSUNNY   81  63  54 S12       30.07F
NEW YORK CITY  MOSUNNY   86  61  42 S13G20    30.06F
CENTRAL PARK   SUNNY     84  61  45 MISG      30.09F
$$

NYZ005>009-017-018-044>046-055-056-302100-
CENTRAL


CITY           SKY/WX    TMP DP  RH WIND       PRES   REMARKS
FULTON         SUNNY     80  59  48 S8        30.08F
SYRACUSE       MOSUNNY   81  57  43 W8        30.07F
ROME           SUNNY     78  59  51 W5        30.09F
ELMIRA         SUNNY     81  55  40 S5        30.08F
BINGHAMTON     SUNNY     75  52  44 CALM      30.13F
MONTICELLO     MOSUNNY   77  57  50 W3        30.13F
$$

NYZ026>034-041>043-087-302100-
NORTH


CITY           SKY/WX    TMP DP  RH WIND       PRES   REMARKS
WATERTOWN        N/A     79  57  46 W10       30.07S
FORT DRUM      NOT AVBL
MASSENA        CLOUDY    77  60  55 SW9       30.04S
SARANAC LAKE   MOSUNNY   73  53  49 SW10G17   30.08F
PLATTSBURGH    CLOUDY    76  59  55 SE14      30.03F
$$

NYZ001>004-010>016-019>021-085-302100-
WEST


CITY           SKY/WX    TMP DP  RH WIND       PRES   REMARKS
NIAGARA FALLS  CLOUDY    82  62  50 SW13      30.07F
BUFFALO        CLOUDY    80  59  48 SW12      30.08F
DUNKIRK        MOSUNNY   78  61  55 W8        30.10F
JAMESTOWN      SUNNY     77  57  50 W5        30.14F
WELLSVILLE     SUNNY     78  57  48 W7        30.17F
ROCHESTER      MOSUNNY   85  58  39 W9        30.07F
PENN YAN       SUNNY     83  54  36 SW6       30.09F
$$

             KEY
       WCI = WIND CHILL INDEX
       VSB = VISIBILITY
       HX  = HEAT INDEX
$$




USA.gov is the U.S. government's official web portal to all federal, state and local government web resources and services.